FW4212 Weather Reports


Display with metric or nautical units.
time (UTC)temp
F
wind
direction
speed
MPH
gust
MPH
rain 1hr
in
rain 24hr
in
rain mn
in
humidity
%
barometer
mb
20260831020036 72 105 0.0 0.0 0.00 0.00 0.00 95 1022.0
20260831015536 72 105 0.0 0.0 0.00 0.00 0.00 95 1021.9
20260831015036 72 105 0.0 0.0 0.00 0.00 0.00 94 1022.0
20260831014537 72 105 0.0 0.0 0.00 0.00 0.00 94 1022.0
20260831014036 72 105 0.0 0.0 0.00 0.00 0.00 94 1022.0
20260831013536 72 105 0.0 0.0 0.00 0.00 0.00 94 1021.9
20260831013040 72 105 0.0 0.0 0.00 0.00 0.00 94 1021.8
20260831012536 72 105 0.0 0.0 0.00 0.00 0.00 93 1021.6
20260831012036 72 105 0.0 0.0 0.00 0.00 0.00 93 1021.6
20260831011539 72 105 0.0 0.0 0.00 0.00 0.00 93 1021.4
20260831011035 73 105 0.0 0.0 0.00 0.00 0.00 93 1021.4
20260831010538 73 105 0.0 0.0 0.00 0.00 0.00 92 1021.4
20260831010035 73 105 0.0 0.0 0.00 0.00 0.00 92 1021.3
20260831005537 73 105 0.0 0.0 0.00 0.00 0.00 92 1021.3
20260831005035 73 105 0.0 0.0 0.00 0.00 0.00 92 1021.2
20260831004536 73 105 0.0 0.0 0.00 0.00 0.00 92 1021.1
20260831004037 73 105 0.0 0.0 0.00 0.00 0.00 91 1021.1
20260831003534 74 105 0.0 0.0 0.00 0.00 0.00 91 1021.2
20260831003041 73 105 0.0 0.0 0.00 0.00 0.00 90 1021.0
20260831002534 74 105 0.0 0.0 0.00 0.00 0.00 90 1021.0
20260831002034 74 105 0.0 0.0 0.00 0.00 0.00 89 1020.9
20260831001534 74 105 0.0 0.0 0.00 0.00 0.00 89 1021.0
20260831001036 74 105 0.0 0.0 0.00 0.00 0.00 89 1020.9
20260831000533 75 105 0.0 0.0 0.00 0.00 0.00 88 1020.8
20260831000035 75 105 0.0 0.0 0.00 0.00 0.00 87 1020.8
20260830235533 75 105 0.0 0.0 0.00 0.00 0.00 87 1020.8
20260830235033 76 105 0.0 0.0 0.00 0.00 0.00 86 1020.8
20260830234541 76 105 0.0 0.0 0.00 0.00 0.00 85 1020.8
20260830234033 76 105 0.0 0.0 0.00 0.00 0.00 85 1020.7
20260830233533 76 105 0.0 0.0 0.00 0.00 0.00 84 1020.7
20260830233033 77 105 0.0 0.0 0.00 0.00 0.00 83 1020.8
20260830232533 77 105 0.0 0.0 0.00 0.00 0.00 83 1020.9
20260830232033 77 105 0.0 0.0 0.00 0.00 0.00 83 1020.7
20260830231537 77 105 0.0 0.0 0.00 0.00 0.00 84 1020.7
20260830231031 78 105 0.0 0.0 0.00 0.00 0.00 83 1020.7
20260830230531 78 105 0.0 0.0 0.00 0.00 0.00 82 1020.7
20260830230041 78 105 0.0 0.0 0.00 0.00 0.00 83 1020.7
20260830225532 79 105 0.0 0.0 0.00 0.00 0.00 81 1020.5
20260830225031 79 105 0.0 0.0 0.00 0.00 0.00 81 1020.6
20260830224531 80 105 0.0 0.0 0.00 0.00 0.00 78 1020.6
20260830224031 80 105 0.0 0.0 0.00 0.00 0.00 79 1020.6
20260830223530 80 105 0.0 0.0 0.00 0.00 0.00 76 1020.6
20260830223030 79 134 0.0 0.0 0.00 0.00 0.00 78 1020.5
20260830222530 80 134 0.0 0.0 0.00 0.00 0.00 80 1020.6
20260830222030 79 170 0.0 0.0 0.00 0.00 0.00 79 1020.7
20260830221529 78 186 0.0 0.0 0.00 0.00 0.00 81 1020.7
20260830221129 78 185 0.0 0.0 0.00 0.00 0.00 82 1020.6
20260830220529 78 185 0.0 0.0 0.00 0.00 0.00 82 1020.7
20260830220029 78 185 0.0 0.0 0.00 0.00 0.00 83 1020.7
20260830215529 78 185 0.0 0.0 0.00 0.00 0.00 82 1020.8
20260830215032 79 185 0.0 0.0 0.00 0.00 0.00 82 1020.7
20260830214528 79 185 0.0 0.0 0.00 0.00 0.00 81 1020.6
20260830214027 80 225 0.0 0.0 0.00 0.00 0.00 79 1020.6
20260830213527 80 225 0.0 0.0 0.00 0.00 0.00 78 1020.7
20260830213027 80 225 0.0 1.0 0.00 0.00 0.00 77 1020.8
20260830212527 81 225 0.0 1.0 0.00 0.00 0.00 73 1020.8
20260830212027 82 225 0.0 0.0 0.00 0.00 0.00 71 1020.7
20260830211526 82 225 0.0 2.0 0.00 0.00 0.00 70 1020.7
20260830211026 82 227 0.0 2.0 0.00 0.00 0.00 70 1020.9
20260830210526 82 226 0.0 3.0 0.00 0.00 0.00 69 1020.8
20260830210026 83 134 0.0 4.0 0.00 0.00 0.00 70 1020.9
20260830205528 83 234 1.0 4.0 0.00 0.00 0.00 72 1021.0
20260830205025 82 132 1.0 3.0 0.00 0.00 0.00 71 1020.9
20260830204526 83 96 1.0 4.0 0.00 0.00 0.00 67 1020.8
20260830204024 83 193 1.0 3.0 0.00 0.00 0.00 69 1020.8
20260830203524 83 207 1.0 4.0 0.00 0.00 0.00 70 1020.9
20260830203033 83 250 1.0 6.0 0.00 0.00 0.00 70 1020.9
20260830202524 83 47 2.0 6.0 0.00 0.00 0.00 69 1020.9
20260830202025 82 98 1.0 3.0 0.00 0.00 0.00 72 1020.9
20260830201535 81 104 0.0 3.0 0.00 0.00 0.00 74 1020.9
20260830201022 82 107 1.0 3.0 0.00 0.00 0.00 70 1020.9
20260830200521 81 141 0.0 3.0 0.00 0.00 0.00 72 1021.0
20260830200021 81 111 0.0 6.0 0.00 0.00 0.00 72 1021.2
20260830195521 82 119 2.0 5.0 0.00 0.00 0.00 70 1021.2
20260830195020 83 138 2.0 5.0 0.00 0.00 0.00 70 1021.2
20260830194518 83 123 0.0 4.0 0.00 0.00 0.00 74 1021.3
20260830194026 82 94 1.0 4.0 0.00 0.00 0.00 74 1021.4
20260830193517 83 105 1.0 8.0 0.00 0.00 0.00 70 1021.5
20260830193018 82 115 3.0 8.0 0.00 0.00 0.00 70 1021.5
20260830192517 82 172 0.0 4.0 0.00 0.00 0.00 72 1021.5
20260830192016 82 144 0.0 4.0 0.00 0.00 0.00 73 1021.6
20260830191523 83 162 1.0 4.0 0.00 0.00 0.00 72 1021.8
20260830191016 83 85 1.0 3.0 0.00 0.00 0.00 72 1021.6
20260830190515 83 126 0.0 4.0 0.00 0.00 0.00 72 1021.7
20260830190016 83 214 0.0 4.0 0.00 0.00 0.00 71 1021.7
20260830185515 82 226 0.0 3.0 0.00 0.00 0.00 69 1021.8
20260830185015 83 257 1.0 6.0 0.00 0.00 0.00 67 1021.8
20260830184513 83 238 1.0 6.0 0.00 0.00 0.00 70 1021.9
20260830184014 84 197 0.0 6.0 0.00 0.00 0.00 72 1022.1
20260830183511 83 132 1.0 4.0 0.00 0.00 0.00 68 1022.2
20260830183011 83 113 0.0 7.0 0.00 0.00 0.00 71 1022.2
20260830182512 82 111 2.0 7.0 0.00 0.00 0.00 70 1022.4
20260830182012 83 128 0.0 3.0 0.00 0.00 0.00 72 1022.5
20260830181508 82 219 1.0 6.0 0.00 0.00 0.00 73 1022.4
20260830181008 82 71 1.0 6.0 0.00 0.00 0.00 71 1022.7
20260830180506 82 269 0.0 4.0 0.00 0.00 0.00 74 1022.7
20260830180006 82 130 2.0 4.0 0.00 0.00 0.00 71 1022.7
20260830175505 82 142 2.0 4.0 0.00 0.00 0.00 71 1022.9
20260830175005 81 67 1.0 4.0 0.00 0.00 0.00 73 1022.8
20260830174508 81 195 0.0 4.0 0.00 0.00 0.00 72 1022.8
20260830174005 82 204 1.0 4.0 0.00 0.00 0.00 76 1023.0
20260830173503 81 76 2.0 7.0 0.00 0.00 0.00 76 1023.1
20260830173002 81 58 3.0 7.0 0.00 0.00 0.00 73 1023.2
20260830172502 81 157 0.0 4.0 0.00 0.00 0.00 73 1023.3
20260830172001 80 68 1.0 4.0 0.00 0.00 0.00 75 1023.4
20260830171559 79 43 2.0 4.0 0.00 0.00 0.00 76 1023.4
20260830171059 78 63 1.0 3.0 0.00 0.00 0.00 77 1023.5
20260830170559 79 111 0.0 2.0 0.00 0.00 0.00 77 1023.6
20260830170059 78 224 0.0 0.0 0.00 0.00 0.00 81 1023.8
20260830165559 78 224 0.0 0.0 0.00 0.00 0.00 83 1023.8
20260830165058 78 224 0.0 0.0 0.00 0.00 0.00 81 1023.8
20260830164607 78 224 0.0 0.0 0.00 0.00 0.00 81 1023.9
20260830164057 78 224 0.0 0.0 0.00 0.00 0.00 80 1023.9
20260830163557 78 224 0.0 1.0 0.00 0.00 0.00 80 1024.0
20260830163057 78 224 0.0 3.0 0.00 0.00 0.00 79 1024.0
20260830162557 79 213 0.0 3.0 0.00 0.00 0.00 77 1024.0
20260830162056 79 248 1.0 3.0 0.00 0.00 0.00 77 1024.0
20260830161604 78 257 0.0 3.0 0.00 0.00 0.00 80 1023.9
20260830161055 79 290 0.0 3.0 0.00 0.00 0.00 76 1024.0
20260830160556 78 221 0.0 2.0 0.00 0.00 0.00 79 1024.1
20260830160057 78 265 0.0 2.0 0.00 0.00 0.00 80 1024.0
20260830155553 77 265 0.0 2.0 0.00 0.00 0.00 80 1024.0
20260830155053 77 265 0.0 2.0 0.00 0.00 0.00 80 1024.0
20260830154553 77 265 0.0 1.0 0.00 0.00 0.00 80 1024.2
20260830154052 77 265 0.0 1.0 0.00 0.00 0.00 79 1024.1
20260830153551 77 265 0.0 0.0 0.00 0.00 0.00 80 1024.2
20260830153053 77 265 0.0 0.0 0.00 0.00 0.00 81 1024.3
20260830152551 76 265 0.0 2.0 0.00 0.00 0.00 80 1024.3
20260830152054 76 265 0.0 2.0 0.00 0.00 0.00 84 1024.2
20260830151556 77 336 0.0 1.0 0.00 0.00 0.00 83 1024.2
20260830151055 78 329 0.0 3.0 0.00 0.00 0.00 84 1024.2
20260830150551 78 143 0.0 3.0 0.00 0.00 0.00 83 1024.1
20260830150050 78 112 0.0 4.0 0.00 0.00 0.00 83 1024.2
20260830145552 76 100 0.0 4.0 0.00 0.00 0.00 83 1024.2
20260830145048 77 298 0.0 3.0 0.00 0.00 0.00 85 1024.2
20260830144546 76 308 0.0 3.0 0.00 0.00 0.00 87 1024.3
20260830144045 75 60 0.0 3.0 0.00 0.00 0.00 88 1024.3
20260830143548 75 106 0.0 3.0 0.00 0.00 0.00 89 1024.4
20260830143044 75 140 0.0 3.0 0.00 0.00 0.00 90 1024.3
20260830142542 74 100 0.0 3.0 0.00 0.00 0.00 89 1024.3
20260830142041 74 98 1.0 5.0 0.00 0.00 0.00 88 1024.5
20260830141552 74 96 2.0 5.0 0.00 0.00 0.00 88 1024.4
20260830141040 74 128 1.0 3.0 0.00 0.00 0.00 88 1024.5
20260830140541 74 119 0.0 4.0 0.00 0.00 0.00 88 1024.3
20260830140046 74 65 2.0 4.0 0.00 0.00 0.00 88 1024.3
20260830135537 74 133 2.0 4.0 0.00 0.00 0.00 88 1024.2
20260830135036 74 99 0.0 4.0 0.00 0.00 0.00 90 1024.1
20260830134535 74 128 1.0 3.0 0.00 0.00 0.00 89 1024.2
20260830134035 74 101 1.0 4.0 0.00 0.00 0.00 89 1024.2
20260830133533 74 88 1.0 6.0 0.00 0.00 0.00 90 1024.2
20260830133038 74 75 1.0 6.0 0.00 0.00 0.00 90 1024.3
20260830132535 74 271 0.0 0.0 0.00 0.00 0.00 92 1024.4
20260830132030 73 49 0.0 2.0 0.00 0.00 0.00 93 1024.3
20260830131530 73 61 0.0 3.0 0.00 0.00 0.00 94 1024.3
20260830131029 72 95 1.0 4.0 0.00 0.00 0.00 95 1024.4
20260830130529 72 111 0.0 2.0 0.00 0.00 0.00 95 1024.3
20260830130028 72 87 0.0 4.0 0.00 0.00 0.00 95 1024.5
20260830125527 71 68 1.0 4.0 0.00 0.00 0.00 96 1024.5
20260830125025 71 38 2.0 3.0 0.00 0.00 0.00 96 1024.3
20260830124525 71 110 1.0 2.0 0.00 0.00 0.00 96 1024.4
20260830124023 71 121 0.0 2.0 0.00 0.00 0.00 96 1024.4
20260830123522 71 92 0.0 3.0 0.00 0.00 0.00 96 1024.4
20260830123025 71 75 0.0 3.0 0.00 0.00 0.00 96 1024.3
20260830122520 71 113 0.0 2.0 0.00 0.00 0.00 96 1024.3
20260830122020 71 84 0.0 3.0 0.00 0.00 0.00 96 1024.3
20260830121519 71 107 0.0 3.0 0.00 0.00 0.00 96 1024.2
20260830121021 71 105 1.0 3.0 0.00 0.00 0.00 96 1024.2
20260830120518 71 94 0.0 0.0 0.00 0.00 0.00 97 1024.2
20260830120017 71 94 0.0 3.0 0.00 0.00 0.00 97 1024.1
20260830115519 71 94 0.0 3.0 0.00 0.00 0.00 97 1024.0
20260830115017 71 65 0.0 0.0 0.00 0.00 0.00 97 1023.9
20260830114526 71 65 0.0 0.0 0.00 0.00 0.00 97 1023.9
20260830114016 71 65 0.0 0.0 0.00 0.00 0.00 97 1023.9
20260830113515 71 64 0.0 0.0 0.00 0.00 0.00 97 1023.8
20260830113016 71 58 0.0 0.0 0.00 0.00 0.00 97 1023.8
20260830112516 70 58 0.0 0.0 0.00 0.00 0.00 97 1023.7
20260830112017 70 58 0.0 0.0 0.00 0.00 0.00 97 1023.7
20260830111515 70 58 0.0 0.0 0.00 0.00 0.00 96 1023.6
20260830111015 70 58 0.0 0.0 0.00 0.00 0.00 96 1023.5
20260830110514 70 58 0.0 0.0 0.00 0.00 0.00 96 1023.4
20260830110014 70 58 0.0 0.0 0.00 0.00 0.00 96 1023.4
20260830105514 70 58 0.0 0.0 0.00 0.00 0.00 96 1023.4
20260830105014 70 58 0.0 0.0 0.00 0.00 0.00 96 1023.3
20260830104513 70 58 0.0 0.0 0.00 0.00 0.00 96 1023.2
20260830104014 70 58 0.0 0.0 0.00 0.00 0.00 96 1023.2
20260830103514 70 58 0.0 0.0 0.00 0.00 0.00 96 1023.0
20260830103016 70 58 0.0 0.0 0.00 0.00 0.00 96 1023.0
20260830102515 70 58 0.0 0.0 0.00 0.00 0.00 96 1023.0
20260830102012 70 95 0.0 0.0 0.00 0.00 0.00 96 1023.0
20260830101512 71 95 0.0 0.0 0.00 0.00 0.00 96 1023.0
20260830101013 71 95 0.0 0.0 0.00 0.00 0.00 96 1023.0
20260830100513 71 95 0.0 0.0 0.00 0.00 0.00 96 1023.0
20260830100016 71 95 0.0 0.0 0.00 0.00 0.00 96 1022.7
20260830095512 71 95 0.0 0.0 0.00 0.00 0.00 96 1022.8
20260830095012 71 95 0.0 0.0 0.00 0.00 0.00 96 1022.8
20260830094511 71 95 0.0 0.0 0.00 0.00 0.00 96 1022.9
20260830094010 71 95 0.0 0.0 0.00 0.00 0.00 96 1022.8
20260830093510 71 95 0.0 0.0 0.00 0.00 0.00 96 1022.9
20260830093010 70 95 0.0 0.0 0.00 0.00 0.00 96 1022.8
20260830092510 70 95 0.0 0.0 0.00 0.00 0.00 96 1022.9
20260830092009 70 95 0.0 0.0 0.00 0.00 0.00 96 1022.9
20260830091509 70 95 0.0 0.0 0.00 0.00 0.00 96 1022.9
20260830091009 70 95 0.0 0.0 0.00 0.00 0.00 96 1022.9
20260830090509 70 95 0.0 0.0 0.00 0.00 0.00 95 1023.0
20260830090017 70 95 0.0 0.0 0.00 0.00 0.00 96 1023.0
20260830085511 71 95 0.0 0.0 0.00 0.00 0.00 96 1023.1
20260830085009 70 95 0.0 0.0 0.00 0.00 0.00 96 1022.9
20260830084508 71 95 0.0 0.0 0.00 0.00 0.00 96 1023.0
20260830084008 71 95 0.0 0.0 0.00 0.00 0.00 96 1023.0
20260830083508 71 95 0.0 0.0 0.00 0.00 0.00 96 1023.0
20260830083008 71 95 0.0 0.0 0.00 0.00 0.00 96 1022.9
20260830082507 70 95 0.0 0.0 0.00 0.00 0.00 96 1022.9
20260830082008 70 90 0.0 0.0 0.00 0.00 0.00 96 1023.0
20260830081508 71 90 0.0 0.0 0.00 0.00 0.00 96 1022.9
20260830081007 71 109 0.0 0.0 0.00 0.00 0.00 96 1022.9
20260830080507 70 109 0.0 0.0 0.00 0.00 0.00 96 1023.0
20260830080006 70 109 0.0 0.0 0.00 0.00 0.00 96 1023.0
20260830075506 70 109 0.0 0.0 0.00 0.00 0.00 96 1023.0
20260830075008 70 109 0.0 0.0 0.00 0.00 0.00 96 1023.0
20260830074507 70 109 0.0 0.0 0.00 0.00 0.00 96 1023.1
20260830074008 70 117 0.0 2.0 0.00 0.00 0.00 96 1023.1
20260830073507 70 117 0.0 2.0 0.00 0.00 0.00 96 1023.1
20260830073007 70 69 0.0 0.0 0.00 0.00 0.00 96 1023.1
20260830072509 71 69 0.0 0.0 0.00 0.00 0.00 96 1023.1
20260830072006 70 69 0.0 0.0 0.00 0.00 0.00 96 1023.1
20260830071505 70 69 0.0 0.0 0.00 0.00 0.00 96 1023.1
20260830071006 70 69 0.0 0.0 0.00 0.00 0.00 96 1023.1
20260830070505 70 69 0.0 0.0 0.00 0.00 0.00 96 1023.1
20260830070003 70 69 0.0 0.0 0.00 0.00 0.00 97 1023.2
20260830065504 70 69 0.0 0.0 0.00 0.00 0.00 97 1023.1
20260830065003 70 69 0.0 0.0 0.00 0.00 0.00 96 1023.2
20260830064502 70 69 0.0 0.0 0.00 0.00 0.00 96 1023.3
20260830064002 69 69 0.0 0.0 0.00 0.00 0.00 96 1023.3
20260830063503 69 69 0.0 0.0 0.00 0.00 0.00 96 1023.3
20260830063001 69 69 0.0 0.0 0.00 0.00 0.00 96 1023.4
20260830062501 70 69 0.0 0.0 0.00 0.00 0.00 96 1023.4
20260830062001 70 69 0.0 0.0 0.00 0.00 0.00 96 1023.4
20260830061601 70 69 0.0 0.0 0.00 0.00 0.00 96 1023.4
20260830061100 69 69 0.0 0.0 0.00 0.00 0.00 96 1023.5
20260830060600 69 69 0.0 0.0 0.00 0.00 0.00 96 1023.6
20260830060059 69 69 0.0 0.0 0.00 0.00 0.00 96 1023.5
20260830055559 69 69 0.0 0.0 0.00 0.00 0.00 96 1023.6
20260830055058 69 69 0.0 0.0 0.00 0.00 0.00 96 1023.7
20260830054606 69 69 0.0 0.0 0.00 0.00 0.00 96 1023.7
20260830054057 69 69 0.0 0.0 0.00 0.00 0.00 96 1023.7
20260830053557 69 69 0.0 0.0 0.00 0.00 0.00 96 1023.7
20260830053057 69 69 0.0 0.0 0.00 0.00 0.00 96 1023.7
20260830052557 69 69 0.0 0.0 0.00 0.00 0.00 96 1023.7
20260830052057 69 69 0.0 0.0 0.00 0.00 0.00 95 1023.6
20260830051556 70 69 0.0 0.0 0.00 0.00 0.00 95 1023.6
20260830051056 70 69 0.0 1.0 0.00 0.00 0.00 95 1023.8
20260830050557 70 69 0.0 1.0 0.00 0.00 0.00 95 1023.7
20260830050055 70 69 0.0 0.0 0.00 0.00 0.00 95 1023.8
20260830045555 70 69 0.0 0.0 0.00 0.00 0.00 95 1023.8
20260830045054 70 69 0.0 0.0 0.00 0.00 0.00 95 1023.8
20260830044558 70 69 0.0 0.0 0.00 0.00 0.00 95 1023.9
20260830044053 70 69 0.0 0.0 0.00 0.00 0.00 95 1023.8
20260830043552 70 69 0.0 0.0 0.00 0.00 0.00 95 1023.9
20260830043057 70 69 0.0 0.0 0.00 0.00 0.00 95 1023.8
20260830042555 70 69 0.0 1.0 0.00 0.00 0.00 94 1023.9
20260830042054 70 69 0.0 1.0 0.00 0.00 0.00 94 1023.9
20260830041551 70 91 0.0 1.0 0.00 0.00 0.00 94 1023.9
20260830041052 71 91 0.0 3.0 0.00 0.00 0.00 94 1024.0
20260830040551 71 79 1.0 3.0 0.00 0.00 0.00 94 1024.0
20260830040047 71 104 0.0 3.0 0.00 0.00 0.00 94 1023.9
20260830035546 71 121 0.0 3.0 0.00 0.00 0.00 94 1024.0
20260830035046 70 73 0.0 0.0 0.00 0.00 0.00 95 1023.9
20260830034546 70 106 0.0 0.0 0.00 0.00 0.00 95 1023.9
20260830034045 70 79 0.0 0.0 0.00 0.00 0.00 94 1023.8
20260830033544 71 79 0.0 0.0 0.00 0.00 0.00 94 1023.8
20260830033047 71 79 0.0 0.0 0.00 0.00 0.00 94 1023.7
20260830032544 71 74 0.0 0.0 0.00 0.00 0.00 94 1023.8
20260830032046 71 61 0.0 0.0 0.00 0.00 0.00 94 1023.8
20260830031544 71 58 0.0 0.0 0.00 0.00 0.00 94 1023.8
20260830031043 71 58 0.0 0.0 0.00 0.00 0.00 94 1023.7
20260830030546 71 58 0.0 0.0 0.00 0.00 0.00 93 1023.7
20260830030044 72 82 0.0 0.0 0.00 0.00 0.00 93 1023.6
20260830025544 72 102 0.0 0.0 0.00 0.00 0.00 93 1023.6
20260830025043 71 69 0.0 0.0 0.00 0.00 0.00 93 1023.7
20260830024543 72 69 0.0 2.0 0.00 0.00 0.00 93 1023.5
20260830024042 72 78 0.0 2.0 0.00 0.00 0.00 94 1023.5
20260830023542 71 81 0.0 0.0 0.00 0.00 0.00 94 1023.6
20260830023059 71 81 0.0 0.0 0.00 0.00 0.00 94 1023.5
20260830022544 72 81 0.0 0.0 0.00 0.00 0.00 94 1023.4
20260830022042 72 81 0.0 0.0 0.00 0.00 0.00 94 1023.3
20260830021542 72 81 0.0 1.0 0.00 0.00 0.00 93 1023.2
20260830021041 72 81 0.0 1.0 0.00 0.00 0.00 93 1023.1
20260830020544 72 57 0.0 2.0 0.00 0.00 0.00 93 1023.0